Miscellaneous Local Product
Issued by NWS Hastings, NE

Home | Current Version | Previous Version | Text Only | Print | Product List | Glossary Off
Versions: 1 2 3 4 5 6 7 8 9 10 11 12 13 14 15 16 17 18 19 20 21 22 23 24 25 26 27 28 29 30 31 32 33 34 35 36 37 38 39 40 41 42 43 44 45 46 47 48 49 50

513
AXUS43 KGID 131002
MISGRI

GID CWA HOURLY WEATHER ROUNDUP
NATIONAL WEATHER SERVICE HASTINGS NE
400 AM CST WED DEC 13 2017

NOTE: "FAIR" INDICATES FEW OR NO CLOUDS BELOW 12,000 FEET WITH NO
SIGNIFICANT WEATHER AND/OR OBSTRUCTIONS TO VISIBILITY.

...SOUTH CENTRAL NEBRASKA...

CITY           SKY/WX    TMP DP  RH WIND       PRES   REMARKS
GRAND ISLAND   CLEAR     43  21  41 NW15      29.77R
KEARNEY        MOCLDY    48  18  30 NW16      29.81R
HASTINGS       CLEAR     43  19  38 NW16G24   29.78R
ORD            MOCLDY    50  18  28 W15G24    29.75F
YORK           CLOUDY    45  21  39 NW13      29.73R
AURORA         CLEAR     40  20  44 NW15      29.75R WCI  32
LEXINGTON      CLOUDY    37  19  50 NW17      29.86R WCI  27
HOLDREGE       CLOUDY    40  21  47 NW15      29.84R WCI  31
HEBRON         CLEAR     39  22  50 W3        29.75S

...NEBRASKA PANHANDLE...

CITY           SKY/WX    TMP DP  RH WIND       PRES   REMARKS
CHADRON        PTCLDY    45  15  30 W16       30.01R
ALLIANCE       CLOUDY    48  16  27 NW24G33   29.97R
SCOTTSBLUFF    CLOUDY    40  14  34 NW9       30.05R WCI  34
SIDNEY         CLOUDY    46   9  22 NW17      30.03R

...WESTERN AND NORTH CENTRAL NEBRASKA...

CITY           SKY/WX    TMP DP  RH WIND       PRES   REMARKS
VALENTINE      PTCLDY    52  19  27 NW29G41   29.82S
AINSWORTH      CLOUDY    52  21  29 NW25G36   29.80S
ONEILL         CLOUDY    53  25  34 NW26G33   29.71F
BROKEN BOW     CLOUDY    51  18  27 NW22G29   29.81R
IMPERIAL       CLEAR     42  12  29 W12       29.94R
NORTH PLATTE   CLOUDY    27  20  75 NW5       29.91R WCI  22
MCCOOK         CLOUDY    38  16  40 W16       29.90R WCI  29

...EASTERN NEBRASKA...

CITY           SKY/WX    TMP DP  RH WIND       PRES   REMARKS
NORFOLK        CLEAR     47  21  35 W17       29.65R
SO SIOUX CITY  CLEAR     49  23  36 NW22G38   29.57F
TEKAMAH        CLOUDY    40  22  48 W15       29.61S WCI  32
COLUMBUS       CLOUDY    38  21  50 W9        29.69F WCI  31
ALBION         PTCLDY    54  20  26 NW21G33   29.70S
OMAHA EPPLEY   CLOUDY    31  22  69 S7        29.64S WCI  24
OFFUTT AFB     CLEAR     24  20  83 W3        29.64F
MILLARD        CLOUDY    40  24  53 W6        29.65R
LINCOLN        CLEAR     35  21  56 CALM      29.70F
NEBRASKA CITY  CLEAR     38  25  58 W20       29.65F WCI  28
BEATRICE       CLEAR     37  23  58 W10       29.71S WCI  29
FALLS CITY     CLEAR     38  23  55 W6        29.68F WCI  33

...NORTHERN KANSAS...

CITY           SKY/WX    TMP DP  RH WIND       PRES   REMARKS
GOODLAND       CLEAR     41  13  31 NW17      29.97R
HILL CITY      CLEAR     48  16  27 NW14G25   29.87R
NORTON         SUNNY     43   9  24 W16       29.87R
PHILLIPSBURG   CLEAR     45  16  31 NW16G23   29.84R
SMITH CENTER   CLEAR     36  19  51 W9        29.82S WCI  29
HAYS           CLEAR     42  18  37 W14       29.85F
RUSSELL        CLEAR     36  19  50 W8        29.83S WCI  30
CONCORDIA      CLOUDY    39  20  46 W14       29.76S WCI  31
SALINA         CLEAR     46  20  35 W8        29.79F
TOPEKA         CLEAR     38  28  67 SW9       29.74F WCI  31



USA.gov is the U.S. government's official web portal to all federal, state and local government web resources and services.